User: anonymous   Login
Location: Spradlin Observatory
(33.4706°N, 86.3221°W)
Time: 18:39:17
(UTC-05:00)
Language:

COSMOS 2406 - Orbit

View from above orbital plane
View from above orbital plane
View from above satellite
View from above satellite

Ground track
Ground track

The orbit data is extracted from the following two-line orbital elements,

1 28352U 04021A   14303.12924704  .00000422  00000-0  25918-3 0  4303
2 28352 071.0036 330.9200 0011525 113.9804 305.8905 14.11364003535248
Epoch (UTC): 30 October 2014 03:06:06
Eccentricity: 0.0011525
inclination: 71.0036°
perigee height: 846 km
apogee height: 863 km
right ascension of ascending node: 330.9200°
argument of perigee: 113.9804°
revolutions per day: 14.11364003
mean anomaly at epoch: 305.8905°
orbit number at epoch: 53524

The dashed part of the orbit path shows where the satellite is in the earth's shadow,  

DLR